Wind_Speed
29 30 31 31 31 32 32 31 31 31 30 30 30 29 28 28 29 29 28 26 25 24 23 22 21 20 22 25 27 29 32 32 33 33 32 30 29 28 26 24 22 20 19 19 18 16 16 15 15 16 16 16 15 15 15 15 15 16 16 15 15 15 15 15 15 16 17 17 18 19 19 18 18 19 19 19 18 19 19 19 19 19 19 20 21
25 26 27 28 29 29 31 31 31 31 31 31 32 31 30 30 30 31 31 29 27 26 25 24 23 22 23 25 27 29 32 34 34 34 33 31 30 29 28 26 24 23 22 21 20 19 18 17 17 18 18 17 17 17 16 16 16 16 16 16 16 16 16 16 16 17 18 18 19 20 20 19 18 18 18 18 19 20 20 20 20 20 20 21 23
23 23 24 24 24 25 28 30 31 32 33 33 33 32 32 32 31 32 32 31 30 28 27 25 25 24 24 25 26 29 32 35 35 35 34 33 32 31 30 28 26 25 24 22 22 21 20 20 19 19 19 19 19 18 18 17 16 16 16 16 16 17 17 17 18 17 18 19 19 20 20 19 19 18 17 18 20 20 21 21 21 21 21 22 23
25 24 24 23 23 23 24 25 27 29 30 32 32 33 33 32 32 32 33 33 32 31 29 28 27 27 26 27 27 28 32 35 36 36 35 34 33 32 31 30 29 28 26 25 24 23 22 22 21 21 21 21 21 20 20 18 18 17 17 17 16 17 18 18 19 20 19 20 20 21 21 20 20 20 20 20 20 20 21 22 22 21 22 23 24
28 26 25 25 25 25 24 24 24 25 26 27 29 29 31 32 32 33 33 34 34 33 32 31 29 29 29 28 28 28 31 35 37 37 35 34 34 34 33 32 31 30 29 27 26 25 24 24 23 23 22 22 22 22 21 20 19 19 18 17 17 18 19 19 20 20 21 21 22 22 23 23 23 23 23 22 22 22 23 23 23 23 24 25 26
31 28 27 27 27 27 27 26 25 24 23 24 24 25 26 28 29 31 32 34 35 34 33 32 32 31 30 30 29 29 30 34 37 38 36 36 35 35 34 33 32 32 31 29 28 27 26 25 25 25 24 22 22 23 24 23 22 20 19 18 18 18 19 20 20 20 21 22 23 23 24 24 25 24 23 22 22 23 23 23 24 24 25 25 26
33 31 29 28 29 29 29 28 27 26 25 24 24 23 22 23 24 26 27 31 33 34 34 34 33 33 32 32 31 30 30 34 37 38 38 37 37 36 36 35 34 33 33 31 30 29 28 27 27 26 25 24 23 24 25 24 24 22 20 19 19 19 21 21 21 21 21 22 23 23 23 24 25 24 23 22 21 22 23 23 23 24 25 25 25
35 33 31 31 31 31 30 29 28 27 27 26 25 24 22 22 22 23 23 26 28 30 31 33 34 34 34 33 33 31 31 33 37 38 38 38 38 38 37 36 36 35 34 33 32 31 30 29 29 28 26 25 24 25 26 25 25 24 22 21 21 21 22 24 23 22 22 23 22 22 23 25 25 24 23 22 21 22 23 23 24 25 25 25 25
36 34 33 33 33 32 31 30 30 29 29 28 26 25 25 24 23 23 23 23 24 26 27 29 32 35 35 35 34 33 32 34 37 38 38 39 39 39 39 38 37 37 35 34 34 33 32 31 31 30 28 26 26 27 27 26 26 25 24 23 23 23 24 25 25 24 24 24 23 23 23 25 25 25 24 23 22 22 23 24 24 24 24 24 24
36 35 35 34 34 34 33 32 31 31 31 30 28 27 26 26 26 25 24 23 24 24 25 27 30 33 35 36 36 35 34 34 36 37 38 39 40 40 39 39 39 38 37 36 35 35 34 33 32 31 30 28 27 28 29 27 26 27 26 24 24 24 25 26 26 25 25 25 24 23 23 24 25 25 23 22 23 23 23 24 24 23 23 22 22
37 36 36 35 35 35 34 34 33 33 33 32 30 29 29 29 29 28 27 26 25 25 25 26 28 31 35 36 37 37 35 34 36 37 38 39 40 40 40 40 40 40 39 38 37 37 36 35 34 34 32 31 29 29 30 29 27 28 29 26 24 25 25 26 26 26 26 25 24 24 24 24 25 25 22 22 24 24 24 25 25 23 22 21 22
37 37 37 37 38 37 36 36 36 35 35 34 32 31 31 31 32 32 30 28 27 26 27 27 27 29 33 35 37 38 37 35 35 37 38 39 40 41 41 41 41 42 41 40 39 38 37 36 36 36 35 33 30 30 30 30 29 29 30 29 27 26 26 26 26 26 26 26 25 25 24 25 24 23 22 23 25 24 24 25 24 22 21 21 21
36 36 38 38 39 38 38 38 37 37 36 35 34 33 33 33 34 34 33 31 29 29 30 29 28 29 31 34 37 38 38 36 35 36 38 39 41 42 43 43 43 43 43 41 40 39 39 38 38 38 37 34 32 31 30 30 30 31 31 31 29 28 27 26 25 26 26 26 25 24 24 25 24 24 24 25 25 24 23 23 24 23 21 20 20
35 35 37 38 38 38 38 37 37 37 37 36 36 35 34 34 35 35 35 35 33 32 32 32 31 30 31 33 36 38 39 37 35 36 38 40 41 42 44 44 44 44 44 43 42 41 40 40 40 40 39 37 34 33 31 30 31 32 32 32 31 30 28 26 25 26 27 26 25 25 24 25 24 25 27 27 25 24 24 24 24 23 21 21 22
34 34 35 36 37 37 37 36 37 38 38 38 38 36 35 35 35 36 37 37 36 36 36 35 34 33 33 33 35 37 38 38 37 36 38 40 42 43 45 46 46 45 46 46 45 43 43 42 42 42 42 40 37 34 32 32 33 34 33 33 32 31 29 26 25 25 26 26 26 25 25 25 25 26 27 26 25 24 24 23 22 22 21 22 24
33 33 33 34 35 36 36 36 37 38 39 39 38 37 36 36 35 36 37 38 39 39 39 38 36 35 35 35 36 36 37 37 38 37 38 40 42 45 47 48 48 47 48 48 47 46 45 45 44 44 44 43 39 35 33 34 35 35 35 33 33 32 30 28 26 26 26 26 25 25 25 25 25 26 27 26 25 24 23 22 21 21 22 23 25
33 33 33 33 34 36 36 37 37 38 39 39 38 37 36 35 35 36 37 39 40 40 41 41 39 37 37 37 37 37 36 36 37 38 38 40 43 45 47 48 49 49 49 49 49 48 48 48 47 46 46 46 42 37 35 35 36 36 36 34 33 32 31 29 27 25 26 26 25 25 25 24 24 26 26 26 24 22 21 22 22 23 23 24 25
32 32 32 32 33 35 36 36 36 37 37 37 36 35 35 34 34 35 37 39 40 41 42 42 41 39 38 38 38 38 37 37 37 38 39 40 43 45 47 49 50 51 52 51 50 50 50 50 49 48 48 48 45 40 37 37 37 37 37 35 33 33 33 31 27 25 25 25 24 25 25 24 24 25 25 25 23 21 21 22 22 23 23 24 25
32 32 31 32 33 34 34 33 33 34 35 35 34 33 32 33 34 35 37 38 39 40 41 42 41 40 39 38 39 40 40 40 39 40 41 43 44 46 48 50 51 53 53 53 52 52 52 52 51 50 50 51 47 42 40 39 39 38 37 36 34 33 32 30 27 25 25 24 24 25 25 24 24 24 24 24 22 20 21 22 22 23 23 23 24
34 34 34 34 34 34 32 31 31 33 33 33 33 31 29 29 31 34 36 38 39 40 40 40 40 40 39 40 40 41 41 42 42 42 42 44 46 47 49 50 52 53 54 54 54 55 54 54 53 52 52 52 49 45 42 41 40 39 38 37 35 32 31 31 29 26 25 24 25 25 25 25 24 23 22 23 22 21 21 22 22 22 22 22 22
32 33 34 35 36 35 35 34 35 35 34 33 32 32 31 30 30 31 33 35 37 37 37 39 39 39 40 40 40 39 39 41 43 43 43 43 46 49 51 51 52 54 55 55 56 56 57 56 55 54 54 54 51 47 44 43 42 41 40 38 35 32 31 31 29 26 25 25 25 25 25 24 23 22 22 22 22 21 21 21 22 22 22 20 20
28 28 30 32 35 37 38 38 37 37 35 35 35 34 33 33 33 32 31 32 32 33 35 37 38 38 39 39 38 38 37 39 41 42 42 43 46 49 52 52 53 55 56 56 56 57 58 58 57 57 57 55 52 48 45 44 43 42 41 39 35 32 31 31 29 26 25 25 25 25 24 23 22 21 22 22 22 21 21 21 21 21 20 19 19
31 30 30 30 32 35 38 39 39 38 37 38 38 36 34 34 34 33 32 32 32 33 35 36 37 38 38 38 38 38 38 39 40 39 40 44 46 48 51 53 54 55 57 58 58 58 60 60 59 58 58 57 54 50 47 46 44 43 42 40 36 33 32 31 29 27 25 24 24 23 22 21 21 21 22 22 22 21 21 21 21 21 19 17 18
33 33 32 31 31 33 35 37 39 39 38 38 38 36 34 34 34 33 33 34 34 36 37 38 39 39 39 39 40 40 41 41 42 41 43 46 46 46 49 53 55 56 58 59 59 60 61 61 60 60 59 58 56 52 50 48 45 43 43 40 36 34 33 31 29 27 25 24 23 22 22 22 21 21 22 23 22 21 22 21 20 20 18 16 17
29 29 29 29 30 32 33 34 35 36 37 36 36 35 35 36 36 36 36 37 38 38 39 39 40 40 40 40 41 42 43 44 44 44 45 46 46 46 47 50 54 58 59 59 60 61 62 61 60 60 60 59 58 55 53 51 47 45 44 41 37 35 34 31 28 27 26 23 21 21 22 23 22 22 23 22 22 21 21 21 20 19 17 15 17
24 25 25 26 27 29 31 33 33 35 35 35 36 37 39 40 39 39 39 39 39 38 38 39 40 40 41 41 41 42 43 43 43 43 43 43 43 44 46 48 53 57 60 61 61 62 63 63 62 62 61 61 60 58 56 53 49 46 45 42 39 37 34 30 28 27 24 21 21 22 23 23 23 23 23 22 22 22 21 20 20 19 15 14 17
24 24 25 25 26 27 29 30 32 34 35 36 38 40 41 41 40 39 39 38 37 37 38 39 40 41 42 42 43 43 43 43 43 43 43 43 43 43 45 48 51 55 59 61 62 63 65 65 64 63 61 61 61 58 55 52 49 47 46 44 41 38 33 29 27 26 23 21 21 23 24 24 23 23 23 22 22 22 20 20 20 18 14 14 17
25 26 26 26 27 27 27 28 30 32 35 37 38 39 39 38 37 37 37 37 37 39 40 41 42 44 45 46 47 47 47 47 46 46 48 49 48 47 48 49 50 53 57 60 62 64 66 66 65 64 64 63 62 60 57 54 51 49 47 45 42 36 31 29 28 25 22 21 22 23 25 25 23 23 23 23 22 22 20 19 19 17 14 13 17
28 27 27 28 28 28 27 27 28 30 32 34 35 35 35 36 36 36 37 38 40 42 44 45 46 46 48 50 52 53 54 53 50 50 53 55 54 53 52 52 53 55 56 58 60 63 65 66 66 66 67 67 66 64 61 57 53 51 49 45 40 35 31 30 28 24 20 20 22 24 25 25 24 24 24 24 23 22 20 19 19 16 13 14 18
27 27 27 27 27 27 27 27 27 28 29 30 31 32 34 35 36 37 39 40 41 43 44 45 45 47 49 51 53 54 55 55 54 54 57 59 59 58 58 58 59 58 57 57 59 62 64 65 67 68 69 69 67 66 64 59 55 53 50 45 40 35 31 28 25 21 20 20 23 25 26 26 24 24 25 24 23 22 21 20 19 16 13 14 18
26 26 26 26 26 26 26 27 27 28 28 30 31 32 33 35 36 38 40 41 43 44 46 47 48 49 50 51 52 53 53 53 53 55 57 60 62 62 63 64 64 63 59 55 57 62 64 64 66 68 69 68 67 66 64 59 56 53 48 43 39 34 29 27 24 21 20 21 23 25 27 26 24 24 25 25 23 22 21 20 18 15 12 14 19
26 26 26 26 27 28 28 29 29 30 31 32 33 34 35 37 38 40 42 43 45 46 48 49 50 50 51 53 54 54 54 53 54 56 58 61 62 63 64 64 64 65 63 58 56 60 64 64 65 67 68 67 67 67 64 59 55 52 47 42 38 32 28 26 24 22 21 22 23 25 26 25 24 25 25 25 24 23 22 20 18 15 12 15 20
26 26 27 28 29 30 31 32 33 34 35 36 37 38 39 41 42 44 45 46 47 48 48 49 51 52 53 55 56 58 59 59 60 62 63 66 67 67 67 66 64 65 66 65 61 61 63 64 64 65 67 68 67 66 64 60 55 51 47 42 39 33 28 26 25 23 21 20 22 25 26 25 25 25 25 25 24 24 23 21 18 14 12 15 21
26 27 28 29 30 32 33 34 36 37 38 39 40 41 43 44 45 45 46 46 46 47 47 48 49 51 53 54 56 58 60 61 64 66 67 69 71 71 71 72 72 70 69 69 67 63 62 63 64 64 66 67 67 65 62 58 55 52 47 42 38 33 29 28 26 23 20 18 21 25 27 26 25 25 25 25 25 25 24 22 18 14 13 16 21
26 27 28 30 31 33 34 35 37 38 38 39 40 41 42 42 43 43 44 44 44 44 44 44 44 46 48 50 52 54 56 59 61 63 64 66 68 69 70 73 75 75 75 74 71 66 63 63 64 66 66 66 66 64 60 57 56 53 49 45 40 33 31 30 27 23 20 19 23 26 27 27 26 25 25 26 26 25 23 22 18 14 13 17 21
27 29 31 32 33 33 34 34 35 36 36 37 37 38 38 38 39 40 40 40 40 40 40 40 41 42 44 47 49 51 54 57 59 60 62 65 68 71 75 77 78 78 78 77 74 70 65 61 63 65 65 64 63 62 59 57 55 52 47 43 37 31 30 31 29 24 20 20 24 27 28 27 26 25 25 26 26 24 23 21 18 15 15 17 21
31 32 32 33 32 32 31 32 32 32 32 32 32 32 32 33 33 34 34 35 35 36 38 39 41 42 44 46 48 50 52 55 57 59 62 64 66 71 75 79 81 81 78 75 74 72 65 60 61 65 65 63 62 61 59 56 53 50 46 39 32 30 31 31 30 26 21 20 24 28 28 27 26 25 25 26 25 24 23 22 19 16 16 18 21
29 29 29 28 28 28 28 27 27 26 26 25 25 26 26 27 28 29 31 32 33 35 36 38 39 40 42 44 45 46 48 49 51 56 59 60 63 66 67 68 73 76 71 68 71 72 65 60 62 65 64 63 63 60 54 48 45 44 42 37 32 31 31 30 29 26 22 21 26 29 28 26 26 25 25 26 25 24 23 22 19 17 17 18 21
24 24 24 24 24 23 22 21 20 20 19 19 20 21 23 25 26 28 29 30 31 33 34 34 34 35 36 38 40 42 42 41 44 49 53 53 53 54 55 54 56 63 65 66 69 69 63 60 62 62 61 61 58 52 45 41 39 37 36 34 32 31 30 29 28 25 23 24 28 29 26 25 25 25 24 25 24 24 23 21 19 18 18 19 21
20 21 21 20 20 19 18 16 15 15 15 16 17 19 20 22 24 25 26 26 27 29 29 29 29 30 32 34 37 37 36 36 38 41 45 47 44 41 39 36 36 44 55 64 65 60 57 59 61 60 58 53 46 41 39 37 35 32 31 30 28 27 26 26 25 25 27 28 28 26 24 25 25 24 23 24 24 24 23 21 20 19 19 20 21
16 16 16 16 15 15 14 14 13 13 14 15 17 18 19 20 21 22 22 22 23 25 25 25 27 28 30 31 31 30 29 29 30 31 34 37 36 31 24 23 30 37 49 63 66 59 55 55 54 51 47 41 36 35 34 31 28 27 26 25 24 24 24 25 26 28 29 28 25 23 24 24 23 22 22 23 24 24 23 22 21 20 19 20 22
13 13 13 13 13 13 14 14 14 15 15 16 17 17 17 18 18 19 19 19 20 21 22 23 25 26 27 26 24 22 22 23 23 23 24 21 22 27 23 8 8 17 31 47 54 50 47 46 42 38 35 32 30 28 26 22 22 22 22 22 23 24 24 26 27 28 27 24 22 23 23 23 22 22 22 23 24 24 24 23 22 21 20 20 22
13 14 14 15 15 15 16 16 16 15 15 16 16 16 16 17 17 17 17 18 19 20 20 21 23 24 22 21 20 19 18 18 19 20 19 15 14 18 17 9 7 12 19 27 31 32 34 33 29 27 26 25 23 21 20 19 21 22 21 22 23 24 25 26 26 25 23 22 22 23 23 22 22 22 22 23 23 24 24 23 22 21 21 21 21
13 13 14 15 16 16 16 16 16 16 15 14 14 14 15 16 16 17 17 17 18 18 17 17 19 21 19 16 17 18 18 17 17 18 18 18 17 16 8 3 7 8 14 18 21 22 23 22 21 22 23 22 23 23 22 22 22 22 22 23 23 24 24 24 22 21 21 22 22 22 22 22 21 21 22 23 23 24 24 24 22 22 21 21 21
13 14 14 15 15 16 16 16 15 15 14 13 13 13 14 15 17 17 18 18 18 18 17 16 17 17 16 13 14 17 18 17 14 14 15 16 16 13 6 1 4 5 6 8 10 12 13 15 17 19 21 22 24 25 24 24 23 23 23 23 23 23 22 21 21 21 21 21 21 21 21 21 21 21 23 23 23 24 24 24 23 22 21 21 22
16 16 16 16 16 16 16 16 16 15 15 15 16 16 16 17 18 18 19 19 18 18 18 18 17 15 13 12 12 14 15 15 12 10 11 11 11 9 8 6 4 2 1 1 3 6 9 13 17 19 21 22 23 24 24 24 24 23 23 22 21 21 21 21 21 20 19 19 20 20 21 21 21 21 22 23 23 24 24 24 24 23 22 21 22
18 19 19 19 18 18 18 19 19 19 20 20 20 20 20 20 20 20 20 20 19 17 16 16 14 13 12 11 10 10 11 11 8 7 8 9 9 8 7 5 4 4 4 5 7 8 11 14 17 19 21 23 23 24 24 23 22 21 21 21 21 21 21 20 19 18 18 18 19 20 21 21 21 21 22 22 23 24 24 24 24 23 22 22 22
18 19 19 20 20 20 20 20 20 20 20 19 18 17 17 18 19 19 19 19 18 15 14 14 13 12 12 11 9 8 8 7 5 4 6 7 7 7 8 9 8 8 8 9 10 11 13 14 16 18 20 21 22 22 21 21 20 20 20 20 20 20 19 18 18 18 19 19 20 21 21 21 21 22 22 21 22 23 23 23 23 23 22 22 22
12 14 15 16 17 17 17 17 16 15 15 14 13 11 11 12 13 15 16 17 17 16 15 15 14 13 12 11 9 8 7 5 3 1 2 3 4 5 8 9 10 9 9 9 10 11 12 14 15 17 19 19 20 21 21 21 20 20 19 19 19 19 19 20 20 21 21 20 21 22 22 22 22 22 22 22 21 22 22 22 22 22 22 22 23
8 9 10 11 12 13 14 14 13 13 13 13 12 11 10 9 10 11 13 14 16 17 16 15 14 13 12 11 12 11 10 9 7 6 4 3 3 5 7 9 10 10 10 11 12 12 13 14 15 17 18 19 20 20 20 19 19 19 19 19 19 20 21 22 22 22 23 23 23 23 23 23 23 23 23 22 22 22 21 21 22 22 22 23 23
6 7 8 9 9 10 11 11 11 11 12 12 12 12 11 10 10 10 11 12 13 13 12 13 14 14 13 13 14 14 13 12 11 10 9 9 9 9 10 11 12 12 12 13 14 14 15 16 16 17 18 19 19 19 19 19 19 20 20 21 22 23 24 24 24 24 24 24 23 23 23 23 23 23 22 22 21 21 21 21 22 22 22 23 23
Wind_Direction
225 225 226 227 228 228 229 230 231 232 232 233 235 236 236 236 236 238 240 241 243 244 246 248 251 249 243 237 230 224 219 218 217 215 215 216 218 221 223 223 223 226 231 237 243 248 254 260 266 271 275 281 288 294 297 298 299 301 303 303 302 300 298 297 296 293 292 291 291 293 295 295 294 296 298 299 299 299 300 303 307 311 314 316 317
225 224 224 226 228 229 231 232 233 234 235 236 238 239 239 238 238 240 242 242 243 244 245 247 249 250 246 241 235 228 222 220 219 217 216 217 219 222 225 226 226 228 232 237 242 247 252 257 262 267 273 277 282 287 291 294 296 298 300 301 300 298 295 294 294 295 295 295 294 296 298 297 294 295 295 295 297 299 300 302 304 306 309 311 312
225 224 223 224 226 228 231 233 235 237 238 240 241 241 242 242 242 242 243 244 244 244 244 245 247 248 248 244 239 231 225 222 222 220 219 218 220 223 227 228 229 231 234 236 240 245 250 255 260 265 271 275 278 282 288 293 295 296 298 298 298 297 293 289 289 290 293 295 296 295 296 295 290 288 289 290 293 296 298 299 301 302 304 304 306
226 226 225 224 225 225 226 229 232 234 237 239 240 241 242 243 243 242 243 244 244 244 244 244 246 246 246 245 241 234 227 224 224 223 221 221 222 224 228 230 231 233 236 237 239 243 248 253 259 263 269 273 277 281 286 292 294 294 295 296 294 293 292 288 284 283 285 289 292 291 290 290 285 282 283 285 287 290 293 296 297 298 298 299 303
227 227 227 227 228 226 225 225 228 230 232 234 236 237 239 241 241 241 241 243 244 244 243 243 244 244 244 244 243 238 230 225 225 225 224 223 224 226 229 231 233 235 238 239 240 242 247 252 257 262 266 271 277 282 286 290 292 293 293 294 293 292 293 292 287 283 281 282 284 286 286 287 286 283 282 281 284 287 289 291 292 293 294 296 300
226 226 226 227 228 228 227 227 228 230 231 233 234 234 235 238 240 240 240 241 243 243 243 243 243 243 244 244 244 241 233 227 226 226 225 225 226 228 230 232 234 236 239 241 243 244 248 252 257 261 266 270 276 281 285 288 291 293 294 295 295 294 295 295 292 288 283 280 280 282 284 286 288 288 285 282 283 285 287 290 292 292 293 294 297
224 223 224 225 226 228 228 228 229 231 233 235 235 236 236 238 240 241 241 241 243 244 243 243 243 244 243 243 243 242 237 230 227 227 226 227 228 229 231 233 234 236 239 242 245 247 249 252 256 261 266 270 274 279 284 287 289 292 294 296 296 296 297 296 296 293 289 286 283 282 283 287 290 291 289 286 284 285 289 294 295 295 294 294 296
222 221 222 223 225 226 227 228 229 231 233 235 237 238 240 242 244 245 244 243 244 245 244 242 242 243 242 242 242 242 239 233 229 228 227 228 230 231 232 234 235 236 239 242 245 247 249 252 256 260 265 269 273 277 282 286 287 288 291 294 295 296 297 298 299 297 294 292 289 285 285 288 291 293 293 292 290 289 293 297 297 296 295 295 298
220 220 221 222 225 225 226 227 229 230 233 234 235 237 240 244 247 248 249 248 247 248 247 243 241 240 240 241 241 242 240 235 231 229 228 230 231 232 233 235 236 237 239 241 244 247 250 252 255 259 264 267 270 274 279 284 286 286 287 290 292 295 298 300 302 299 295 294 293 290 287 289 292 294 296 296 295 295 297 299 298 296 295 296 298
219 220 221 222 225 225 225 226 229 230 233 235 235 236 239 243 246 249 252 254 253 252 251 246 242 240 239 239 240 241 240 237 233 231 230 231 233 234 235 236 237 237 239 241 244 247 250 252 255 259 262 265 268 272 278 283 285 284 284 286 289 294 299 303 304 301 296 294 294 292 290 291 293 292 293 296 297 298 299 298 298 297 296 296 296
218 220 221 222 224 225 225 226 230 232 233 235 236 236 237 241 245 248 251 253 255 254 254 251 246 242 241 240 241 242 242 240 236 232 231 232 234 235 237 237 237 238 239 240 243 246 249 252 255 258 261 263 267 272 278 282 284 282 282 284 286 291 298 303 304 301 296 294 293 292 291 293 292 290 293 298 298 298 297 297 297 296 294 294 294
220 221 222 223 224 225 225 226 230 233 234 235 236 236 235 238 243 247 249 251 253 254 255 254 252 248 245 243 243 244 245 243 239 235 233 233 235 236 238 239 239 238 239 240 243 245 248 251 254 257 260 262 267 272 276 280 282 281 281 282 284 290 297 302 303 300 297 295 294 294 295 294 290 289 295 299 297 295 294 294 293 291 290 292 293
221 221 222 225 227 226 225 226 230 233 235 235 235 235 234 236 242 247 249 249 251 253 254 254 254 252 250 247 245 246 247 246 242 237 234 234 235 237 239 241 241 239 240 241 243 245 248 250 253 256 259 262 265 269 274 278 279 279 280 281 283 288 295 300 301 299 296 294 293 295 296 293 288 289 295 297 294 291 290 289 289 290 290 293 297
221 222 224 227 229 227 225 226 229 232 234 234 234 235 234 235 239 244 247 249 250 252 253 253 253 253 253 251 249 247 248 248 246 241 236 235 235 237 240 242 242 241 240 241 243 245 247 250 252 255 258 260 262 267 272 275 275 276 278 279 281 285 291 296 298 298 295 291 289 290 291 289 286 287 293 295 291 288 288 288 290 292 295 299 303
222 224 226 228 229 227 226 227 228 231 232 233 234 235 234 235 237 240 244 248 251 252 253 253 253 252 252 253 252 250 250 250 249 244 239 236 235 237 239 242 243 243 242 242 244 245 248 250 252 254 257 258 260 264 270 273 273 273 276 277 279 282 286 291 295 295 294 289 285 284 284 284 283 285 290 292 290 289 290 291 293 296 300 303 305
222 224 227 228 229 229 228 228 229 231 233 234 234 235 235 235 237 239 243 247 250 252 253 254 253 252 251 252 253 253 252 251 250 248 243 238 236 237 239 241 244 244 244 244 245 246 248 250 251 254 256 258 260 262 267 271 272 272 274 276 278 280 282 287 293 294 292 287 282 279 279 280 281 283 287 290 289 291 292 293 295 298 301 303 303
223 225 227 228 230 231 230 230 231 232 235 236 236 236 237 238 239 240 243 247 250 253 254 255 256 255 253 253 254 256 256 254 252 251 247 242 239 238 240 242 244 245 246 246 246 247 248 250 251 253 256 258 260 261 264 268 270 272 274 276 278 278 280 286 292 292 290 286 279 275 276 278 281 284 288 289 289 290 291 293 296 298 301 303 303
225 225 226 228 229 230 230 230 231 232 234 236 237 237 237 239 241 242 245 248 250 252 253 254 256 258 258 256 255 257 258 257 255 252 249 246 243 241 242 243 245 246 247 247 248 248 249 250 251 253 255 258 260 261 263 266 269 272 274 275 276 276 279 285 290 289 287 283 276 272 273 277 282 286 287 286 286 287 288 291 295 298 302 303 302
224 224 223 225 227 228 228 229 230 231 232 233 234 234 236 240 243 244 246 247 247 248 249 252 255 257 257 256 255 254 254 254 254 251 249 247 245 244 243 244 245 246 247 248 249 250 250 251 252 253 255 257 259 261 263 265 268 271 273 274 274 275 278 283 287 288 285 280 273 270 273 277 282 285 286 283 283 284 286 290 294 297 300 300 301
223 223 224 226 228 224 222 226 231 233 234 232 231 233 238 243 247 248 248 246 246 247 248 251 254 255 256 255 254 253 252 252 252 251 248 247 246 246 245 245 246 248 249 249 250 251 252 252 253 253 254 257 259 260 262 265 268 270 272 272 273 273 275 281 287 288 284 278 272 270 272 276 280 283 283 280 280 281 284 288 293 295 297 297 300
222 224 227 231 231 227 223 226 230 233 236 237 236 236 239 243 248 250 249 247 246 248 249 250 252 253 253 254 254 255 254 253 252 251 250 247 246 245 246 247 248 249 250 250 251 251 252 253 254 254 255 257 259 260 261 265 267 269 271 271 271 271 273 279 285 286 281 277 272 270 273 277 279 280 279 277 277 280 284 289 292 293 294 297 301
225 227 230 232 233 232 231 231 231 231 235 239 241 240 240 242 244 246 244 241 241 244 246 248 249 250 251 253 254 255 255 255 255 254 252 250 247 245 245 247 248 249 250 251 251 252 253 254 254 254 255 257 258 259 260 262 265 267 269 268 268 268 271 277 281 282 279 275 270 271 275 276 275 276 276 275 276 280 285 289 290 290 293 298 300
231 232 233 233 233 232 233 234 234 234 235 238 241 243 241 240 240 238 235 235 236 239 241 244 246 248 250 252 253 254 255 256 257 257 255 253 250 246 245 246 247 248 250 251 252 253 254 254 255 255 255 256 257 258 259 261 263 265 266 266 265 266 268 273 277 278 278 274 271 272 276 275 272 273 274 274 276 281 285 287 288 289 292 297 299
232 234 235 235 234 232 232 233 234 236 237 239 241 242 237 235 235 234 233 234 236 239 242 244 246 248 250 252 253 253 253 254 255 256 256 257 256 252 248 246 246 246 248 250 251 252 254 255 255 255 255 256 257 257 258 260 261 263 264 263 262 262 265 270 274 275 276 274 272 273 275 272 270 270 272 273 276 281 284 286 287 288 291 295 297
233 234 236 237 236 235 234 234 235 236 238 240 242 238 232 231 234 235 233 235 239 242 244 246 247 249 251 252 253 253 254 254 254 254 256 260 262 260 254 249 247 246 246 248 250 251 253 254 255 254 254 255 255 256 256 258 260 261 262 260 258 259 264 268 271 273 274 273 271 272 271 267 266 268 270 272 275 279 282 284 285 286 290 295 295
236 236 237 238 238 238 238 238 239 240 240 241 242 237 232 232 234 235 235 237 241 245 247 248 249 250 251 253 253 254 255 255 255 254 255 257 261 262 259 254 250 248 246 245 246 248 250 252 252 252 252 252 253 254 255 257 258 259 258 257 255 257 261 266 269 270 270 268 269 270 267 262 262 267 268 270 273 277 279 281 282 283 288 293 294
242 242 242 241 241 241 241 241 242 242 241 240 239 235 233 233 236 238 240 243 246 249 250 251 251 252 254 255 254 253 253 254 255 255 255 255 256 258 259 258 255 252 249 246 245 246 247 248 249 250 250 250 252 253 253 254 254 255 255 254 253 255 260 263 264 265 265 264 267 268 265 260 261 264 266 268 271 275 277 279 279 281 285 290 291
247 247 247 248 247 247 246 245 243 242 240 239 237 236 236 239 242 245 248 252 255 258 259 259 257 255 254 253 253 252 252 254 256 256 256 255 254 254 256 258 257 254 251 248 246 246 247 247 247 248 247 248 249 249 250 251 251 251 252 251 249 252 255 255 258 261 262 264 269 269 264 260 260 262 265 267 270 273 275 276 276 278 285 289 289
250 250 249 249 249 249 249 247 245 243 241 241 241 242 244 247 251 254 256 258 260 261 263 264 262 259 256 254 253 252 252 253 255 256 256 256 255 254 254 256 255 252 250 249 248 247 247 248 248 247 248 248 248 249 250 250 249 249 248 246 245 249 250 251 256 261 261 265 272 270 261 256 257 261 263 266 269 271 272 272 272 275 284 288 287
248 247 247 247 247 247 247 247 247 246 245 246 248 249 251 254 257 259 260 261 261 261 262 263 263 262 261 259 258 258 257 257 256 255 255 255 256 255 253 253 253 252 250 250 249 247 247 247 248 248 249 249 249 250 251 250 248 248 245 242 245 249 250 251 255 257 259 268 274 268 259 254 255 260 262 264 267 269 269 268 268 272 281 285 284
244 245 246 246 247 248 249 250 251 252 252 253 255 256 258 259 260 261 262 263 264 264 264 264 264 264 263 263 263 262 262 262 261 260 259 259 258 256 254 253 253 252 251 250 248 247 246 245 244 245 247 249 250 251 252 250 247 245 241 240 245 248 246 246 249 251 256 264 267 262 256 253 254 257 260 263 266 268 267 265 265 268 278 283 282
245 247 248 250 252 253 254 255 256 257 258 259 261 262 263 263 264 264 264 265 266 266 266 266 266 267 267 268 268 267 267 267 266 266 265 264 263 262 260 257 255 255 253 250 246 244 245 243 241 240 242 245 248 250 251 249 246 242 239 240 243 244 242 241 243 247 250 254 257 256 253 250 252 256 258 262 265 266 264 262 261 266 275 279 279
249 251 252 255 256 258 259 260 260 261 262 263 264 264 265 265 266 266 266 267 267 268 269 270 270 271 272 272 272 272 271 270 269 268 268 267 267 267 266 264 262 259 255 251 246 243 241 239 238 238 240 241 243 246 248 248 244 238 236 239 243 243 239 236 235 238 242 249 258 259 253 248 251 254 257 260 263 264 263 260 258 263 271 275 277
252 253 254 256 257 258 259 260 260 261 261 261 262 263 263 265 266 267 269 270 271 272 273 274 274 275 275 275 276 276 275 274 273 272 270 269 268 268 267 266 264 261 257 253 250 248 245 239 235 234 236 236 237 239 242 243 239 233 233 239 241 236 229 226 226 228 236 251 265 263 253 247 250 254 256 260 262 262 262 259 257 261 268 273 276
253 254 255 255 256 257 257 258 259 260 261 262 263 264 266 268 269 270 272 273 273 274 274 274 275 275 275 275 275 275 275 274 273 272 272 272 271 270 267 265 263 261 259 255 253 252 252 246 237 233 232 232 232 233 234 235 233 230 232 237 236 228 219 219 220 222 234 256 267 261 250 247 249 252 256 259 261 261 261 258 258 262 266 270 274
251 252 253 254 256 258 259 260 262 263 264 265 266 267 268 269 269 270 271 271 272 273 273 273 273 274 275 276 276 275 275 274 273 272 272 272 272 272 270 267 264 261 258 256 253 252 252 247 238 233 231 230 230 229 228 226 226 226 228 231 229 220 214 215 217 221 237 260 266 256 247 245 247 251 255 259 261 262 260 257 257 261 264 268 273
248 250 253 255 258 260 261 262 264 264 264 265 265 265 266 266 266 268 268 269 271 273 274 276 277 277 279 279 280 280 281 280 279 278 276 276 278 277 274 269 264 258 254 252 248 246 246 243 236 230 228 227 226 224 221 218 219 223 226 226 219 211 212 216 219 224 239 257 259 250 243 243 246 250 254 258 260 260 257 255 255 257 261 266 272
251 252 254 255 256 257 258 258 258 258 258 258 258 260 262 263 265 267 269 273 276 277 280 282 283 284 285 284 284 287 290 293 294 290 286 288 289 283 276 269 260 251 247 247 245 243 242 239 232 227 225 223 220 217 212 207 208 214 219 218 210 207 212 218 220 226 240 252 251 244 240 242 246 249 253 256 257 256 254 252 252 255 259 264 270
251 251 250 250 249 247 247 246 245 246 249 252 255 259 262 264 268 271 274 278 281 282 285 288 290 292 294 296 298 299 302 311 314 305 299 302 299 284 274 270 259 247 243 244 243 242 241 235 227 222 220 217 212 207 199 193 194 201 207 208 206 207 211 215 220 230 243 247 243 240 239 243 247 250 253 256 256 254 251 249 250 254 258 262 268
246 246 246 245 242 240 239 240 243 249 255 259 263 266 268 270 273 276 279 283 286 287 290 295 299 304 309 313 317 319 321 328 330 320 312 315 315 298 279 266 253 246 246 245 241 238 236 230 221 214 210 204 197 191 187 186 190 197 202 205 206 208 212 217 224 234 241 241 239 238 240 244 248 251 254 255 255 253 250 247 248 252 256 261 267
240 242 245 246 246 247 250 255 262 268 273 275 277 278 278 278 279 282 285 289 292 295 300 307 312 319 326 331 336 342 342 340 338 332 328 334 344 341 314 268 241 236 236 236 235 233 226 215 203 195 190 185 180 180 182 186 193 199 203 205 206 209 215 221 227 234 238 239 238 238 241 246 250 253 254 254 254 252 248 245 245 248 253 260 267
239 244 251 255 258 262 265 268 272 276 281 284 287 287 286 284 284 287 291 295 299 304 312 318 323 331 340 345 349 355 354 346 340 336 336 346 8 19 17 359 218 195 192 200 206 206 196 183 173 169 170 172 174 178 183 189 196 200 201 203 205 210 216 222 228 234 238 239 239 241 244 248 251 253 254 255 253 250 247 244 245 248 252 259 265
250 254 258 260 263 266 268 270 274 278 282 287 290 289 287 285 286 291 296 300 305 310 317 324 329 335 345 354 356 356 354 348 341 336 334 334 341 353 7 38 89 95 114 139 152 153 151 150 153 160 168 171 171 174 182 189 195 197 199 202 207 213 219 225 231 236 240 240 241 244 247 250 252 254 255 255 253 250 247 244 245 248 252 258 265
257 259 262 263 265 266 268 270 274 278 283 289 292 291 288 287 289 295 300 303 306 310 316 324 329 332 340 353 360 357 352 347 340 336 341 350 354 350 343 184 160 119 99 104 112 120 132 146 159 167 168 164 164 172 182 189 193 198 202 205 210 217 222 229 235 238 239 241 243 246 249 252 253 254 255 255 253 250 247 245 245 248 252 257 263
260 262 263 264 264 266 269 271 274 277 280 285 288 288 289 291 294 297 300 303 304 306 309 314 319 324 331 342 352 353 350 348 345 343 348 359 9 13 15 126 161 139 114 109 115 130 147 158 163 163 162 163 167 175 183 187 191 196 201 207 214 221 226 231 235 237 239 243 246 249 252 254 254 255 256 256 254 250 247 245 245 246 250 256 260
262 262 263 264 265 267 269 270 272 275 277 279 282 285 287 289 293 295 296 299 300 300 302 306 309 312 318 327 337 345 347 347 350 1 16 27 33 29 19 10 4 357 345 190 172 169 166 161 156 157 163 170 176 181 185 189 193 199 205 212 218 223 227 231 234 237 242 247 250 253 255 255 255 257 258 258 254 250 246 245 245 245 248 253 257
260 261 263 265 266 268 270 270 272 275 278 280 284 285 285 285 287 288 289 292 295 295 296 300 301 300 301 306 314 329 340 346 353 7 26 46 64 73 71 67 70 84 112 140 152 157 160 161 161 165 173 181 185 187 191 196 202 208 213 218 223 227 232 237 240 245 249 253 256 258 258 257 258 259 259 258 256 250 245 244 245 246 247 250 255
260 261 262 263 265 267 268 270 271 273 276 279 283 286 288 287 285 283 283 285 286 286 287 290 291 290 289 288 287 295 312 328 348 15 25 38 61 88 106 115 119 124 132 140 145 150 158 167 173 178 184 189 193 196 202 207 212 216 220 225 230 236 242 247 251 254 257 259 262 262 260 258 258 259 259 258 255 250 245 243 244 245 246 249 253
262 262 262 263 264 264 265 267 269 270 274 277 282 288 296 297 292 287 284 284 283 282 282 283 284 282 278 273 268 268 275 280 281 356 51 59 85 112 125 132 138 142 146 152 160 168 175 182 186 190 196 200 202 205 209 214 218 223 229 235 242 249 254 256 258 261 264 266 265 263 260 258 258 258 258 257 253 249 247 244 244 245 246 248 251
272 271 269 269 269 268 268 270 273 275 277 281 284 287 293 299 299 295 291 288 288 286 282 279 280 278 270 260 255 254 253 247 234 218 204 191 182 177 174 175 178 181 184 187 192 194 195 197 198 200 203 205 208 211 216 221 226 233 240 247 253 257 259 260 263 266 267 267 265 262 259 257 256 256 255 253 250 248 247 245 244 245 246 247 251
285 285 283 280 278 277 276 278 282 286 289 290 290 290 289 288 290 293 294 295 298 295 286 278 275 273 269 266 260 251 242 235 228 221 217 216 218 218 214 208 203 202 203 201 199 199 200 202 204 205 208 211 215 220 225 231 238 245 251 256 258 259 261 263 265 266 266 266 264 260 258 257 256 255 253 250 248 247 247 246 246 246 246 248 251
Height
3167 3169 3171 3173 3174 3176 3178 3180 3182 3183 3185 3186 3188 3189 3191 3192 3194 3195 3196 3197 3198 3199 3200 3200 3201 3202 3203 3204 3205 3206 3207 3209 3210 3211 3213 3215 3216 3217 3218 3218 3219 3219 3219 3219 3220 3221 3221 3221 3221 3220 3220 3220 3220 3219 3218 3218 3217 3217 3216 3216 3215 3215 3214 3214 3213 3213 3212 3211 3210 3210 3210 3209 3209 3208 3207 3207 3206 3206 3205 3204 3203 3203 3202 3200 3199
3164 3166 3168 3170 3171 3173 3175 3177 3179 3180 3182 3183 3184 3186 3187 3189 3191 3191 3192 3194 3195 3196 3197 3198 3199 3199 3200 3201 3202 3203 3205 3206 3207 3208 3210 3212 3214 3215 3216 3216 3217 3217 3217 3218 3218 3218 3219 3219 3219 3218 3218 3218 3218 3218 3217 3217 3216 3216 3215 3215 3214 3213 3213 3212 3212 3211 3210 3209 3209 3208 3207 3207 3207 3206 3205 3205 3204 3204 3203 3202 3201 3201 3200 3199 3197
3161 3163 3165 3167 3168 3171 3172 3173 3175 3176 3178 3179 3180 3182 3184 3186 3187 3188 3189 3190 3192 3193 3194 3195 3196 3196 3197 3198 3199 3200 3202 3203 3204 3205 3207 3209 3211 3212 3213 3214 3215 3215 3216 3216 3216 3216 3216 3216 3216 3216 3216 3216 3216 3216 3216 3215 3215 3214 3213 3213 3213 3212 3211 3211 3210 3210 3209 3208 3208 3207 3206 3205 3205 3204 3204 3203 3202 3201 3201 3200 3200 3199 3198 3197 3196
3158 3160 3162 3164 3166 3168 3169 3170 3172 3173 3174 3175 3177 3179 3180 3182 3183 3185 3186 3187 3188 3189 3191 3192 3193 3193 3194 3195 3196 3197 3199 3201 3202 3203 3205 3206 3208 3209 3211 3212 3213 3213 3213 3214 3214 3214 3214 3214 3214 3214 3214 3214 3214 3214 3214 3213 3213 3212 3212 3211 3211 3210 3210 3209 3209 3208 3208 3207 3206 3206 3205 3204 3203 3202 3202 3201 3201 3200 3199 3198 3197 3197 3195 3194 3194
3154 3157 3159 3161 3163 3164 3166 3167 3168 3169 3171 3172 3173 3175 3177 3178 3179 3181 3182 3183 3184 3185 3187 3188 3189 3190 3191 3192 3193 3194 3196 3198 3199 3200 3202 3204 3205 3206 3208 3209 3210 3211 3211 3211 3212 3212 3212 3212 3211 3211 3211 3212 3212 3211 3211 3211 3211 3210 3210 3209 3209 3208 3207 3207 3207 3206 3206 3205 3204 3204 3203 3202 3201 3201 3200 3199 3198 3198 3197 3196 3195 3194 3193 3192 3191
3151 3153 3156 3158 3160 3161 3163 3165 3166 3167 3168 3169 3171 3172 3174 3175 3176 3177 3178 3179 3180 3182 3183 3185 3185 3186 3188 3189 3190 3191 3193 3194 3196 3198 3199 3201 3202 3203 3204 3206 3207 3208 3208 3209 3209 3209 3209 3209 3209 3209 3209 3209 3209 3209 3209 3208 3208 3208 3208 3207 3207 3206 3205 3204 3204 3203 3203 3202 3202 3201 3200 3200 3199 3198 3197 3197 3196 3195 3195 3194 3193 3191 3190 3189 3188
3147 3150 3152 3154 3156 3158 3160 3162 3163 3165 3166 3167 3169 3170 3171 3172 3172 3173 3175 3176 3177 3178 3179 3181 3182 3183 3185 3186 3187 3188 3190 3191 3192 3194 3196 3198 3199 3200 3201 3202 3204 3204 3205 3206 3207 3207 3207 3207 3206 3206 3206 3207 3207 3207 3206 3206 3205 3205 3205 3204 3204 3203 3202 3202 3201 3200 3199 3199 3198 3198 3197 3197 3196 3195 3194 3194 3193 3192 3192 3191 3190 3188 3187 3186 3185
3144 3146 3149 3151 3152 3154 3157 3159 3161 3162 3163 3165 3166 3167 3168 3169 3170 3171 3172 3173 3174 3174 3176 3178 3179 3180 3181 3183 3184 3185 3186 3187 3189 3191 3193 3194 3195 3196 3198 3199 3200 3201 3202 3203 3204 3204 3205 3205 3204 3204 3204 3204 3205 3204 3203 3203 3203 3202 3202 3202 3201 3201 3200 3199 3198 3197 3196 3195 3195 3195 3194 3194 3193 3192 3191 3190 3190 3189 3188 3187 3186 3185 3183 3182 3181
3140 3142 3145 3147 3149 3151 3154 3156 3158 3159 3160 3162 3163 3164 3165 3166 3167 3168 3169 3170 3171 3172 3173 3174 3175 3176 3178 3179 3181 3182 3183 3184 3185 3187 3189 3191 3192 3193 3194 3196 3197 3198 3199 3200 3201 3201 3202 3202 3201 3201 3201 3202 3202 3201 3201 3201 3200 3200 3200 3200 3199 3198 3197 3196 3195 3194 3193 3192 3192 3192 3191 3191 3190 3189 3188 3187 3186 3185 3185 3184 3183 3182 3181 3179 3178
3136 3139 3141 3144 3146 3148 3151 3153 3154 3156 3157 3158 3160 3162 3163 3164 3164 3165 3166 3167 3168 3169 3170 3171 3172 3173 3174 3175 3177 3178 3179 3180 3181 3184 3186 3187 3189 3190 3191 3192 3193 3194 3195 3197 3198 3198 3199 3199 3199 3199 3199 3199 3199 3199 3198 3198 3198 3197 3197 3197 3196 3195 3194 3193 3192 3192 3191 3190 3189 3189 3188 3188 3187 3186 3185 3184 3183 3182 3181 3181 3180 3179 3178 3177 3175
3133 3136 3138 3141 3143 3145 3147 3149 3151 3152 3154 3155 3157 3159 3160 3161 3162 3162 3164 3165 3166 3167 3167 3168 3169 3169 3171 3172 3173 3174 3175 3176 3178 3181 3183 3184 3185 3186 3188 3189 3190 3191 3191 3193 3194 3195 3195 3196 3196 3195 3195 3196 3196 3196 3195 3195 3195 3194 3193 3194 3193 3193 3192 3191 3190 3189 3188 3187 3186 3186 3185 3185 3184 3183 3183 3182 3181 3180 3179 3178 3177 3176 3175 3174 3173
3131 3133 3136 3138 3139 3141 3144 3146 3147 3149 3150 3152 3154 3156 3158 3159 3159 3159 3160 3162 3163 3164 3164 3165 3166 3167 3167 3168 3169 3170 3171 3173 3175 3177 3179 3181 3182 3183 3184 3185 3186 3187 3187 3189 3190 3191 3192 3192 3192 3192 3192 3192 3193 3193 3192 3192 3192 3191 3190 3190 3190 3190 3189 3188 3187 3186 3185 3184 3183 3183 3182 3182 3181 3181 3180 3179 3178 3177 3176 3175 3174 3173 3172 3172 3171
3128 3130 3132 3134 3136 3138 3141 3143 3144 3145 3147 3149 3151 3152 3154 3155 3156 3156 3157 3159 3160 3161 3161 3162 3163 3163 3164 3165 3166 3167 3168 3169 3172 3174 3175 3177 3178 3179 3180 3180 3181 3182 3183 3184 3186 3187 3187 3188 3188 3187 3188 3189 3189 3189 3189 3189 3189 3188 3187 3186 3186 3187 3186 3185 3185 3183 3182 3181 3180 3180 3179 3179 3178 3178 3177 3177 3175 3174 3173 3172 3171 3170 3170 3169 3168
3124 3127 3129 3130 3133 3136 3138 3140 3141 3142 3144 3146 3147 3149 3151 3152 3153 3154 3154 3155 3156 3157 3158 3158 3159 3160 3161 3161 3162 3163 3164 3165 3168 3170 3171 3173 3175 3175 3176 3176 3177 3178 3179 3180 3181 3182 3183 3183 3183 3183 3184 3185 3186 3186 3186 3186 3185 3185 3184 3183 3183 3183 3183 3183 3182 3181 3179 3178 3177 3177 3177 3176 3175 3175 3174 3173 3172 3171 3170 3169 3168 3167 3167 3166 3164
3122 3124 3126 3128 3130 3132 3135 3137 3138 3139 3141 3142 3144 3146 3148 3149 3150 3151 3151 3151 3152 3153 3154 3155 3156 3157 3157 3157 3158 3159 3160 3161 3163 3166 3167 3169 3171 3171 3171 3171 3172 3173 3174 3175 3176 3177 3178 3178 3179 3179 3179 3180 3182 3183 3183 3182 3182 3181 3181 3181 3180 3180 3180 3179 3179 3178 3176 3175 3175 3174 3173 3173 3172 3172 3171 3170 3169 3168 3167 3166 3166 3165 3164 3163 3161
3119 3121 3123 3125 3127 3129 3131 3133 3135 3136 3137 3139 3141 3143 3144 3146 3147 3148 3148 3148 3149 3149 3150 3151 3151 3152 3153 3154 3154 3155 3156 3158 3159 3161 3163 3165 3167 3167 3167 3167 3167 3168 3169 3170 3171 3172 3173 3173 3174 3174 3174 3175 3178 3179 3179 3178 3178 3177 3177 3177 3177 3177 3176 3176 3175 3174 3173 3172 3172 3171 3170 3170 3169 3168 3167 3166 3165 3164 3164 3163 3163 3162 3161 3160 3158
3116 3118 3120 3122 3124 3126 3128 3130 3131 3133 3134 3135 3138 3140 3141 3143 3144 3144 3145 3145 3145 3145 3146 3146 3147 3149 3149 3150 3150 3151 3153 3154 3155 3157 3159 3161 3162 3162 3162 3162 3162 3162 3163 3164 3166 3167 3168 3168 3169 3170 3170 3171 3173 3175 3175 3174 3173 3173 3173 3173 3173 3173 3172 3172 3172 3171 3170 3169 3169 3168 3167 3166 3166 3165 3164 3163 3162 3162 3161 3160 3159 3158 3157 3156 3155
3113 3115 3117 3119 3120 3122 3124 3126 3128 3129 3131 3132 3134 3136 3138 3139 3140 3140 3141 3141 3141 3142 3142 3143 3144 3145 3145 3146 3147 3148 3149 3149 3151 3152 3154 3156 3157 3157 3158 3158 3157 3158 3158 3159 3161 3162 3163 3163 3165 3166 3166 3166 3168 3171 3171 3170 3170 3169 3169 3169 3169 3169 3168 3169 3169 3168 3166 3166 3165 3165 3164 3163 3162 3161 3160 3160 3159 3159 3158 3157 3156 3155 3154 3153 3151
3110 3111 3113 3115 3116 3118 3121 3123 3125 3126 3128 3129 3131 3132 3134 3135 3135 3136 3136 3137 3137 3137 3138 3138 3139 3139 3140 3141 3141 3142 3143 3144 3145 3147 3148 3150 3151 3152 3152 3153 3152 3152 3153 3155 3156 3157 3158 3159 3160 3162 3161 3161 3163 3166 3166 3165 3166 3165 3166 3166 3165 3165 3165 3165 3165 3164 3163 3162 3162 3161 3161 3160 3159 3158 3157 3157 3156 3156 3155 3154 3153 3152 3151 3150 3148
3106 3108 3110 3111 3113 3115 3118 3120 3121 3123 3124 3126 3127 3128 3130 3130 3131 3131 3132 3132 3132 3132 3133 3133 3134 3134 3135 3135 3136 3136 3137 3138 3139 3140 3143 3144 3146 3147 3147 3147 3147 3147 3148 3149 3151 3151 3152 3153 3155 3157 3156 3156 3159 3161 3161 3161 3161 3161 3161 3162 3161 3162 3161 3160 3161 3160 3159 3158 3158 3157 3157 3156 3155 3154 3154 3154 3153 3153 3152 3151 3150 3149 3148 3147 3145
3103 3105 3106 3108 3110 3112 3113 3115 3117 3119 3120 3121 3122 3124 3124 3125 3126 3127 3128 3128 3127 3128 3128 3129 3129 3129 3130 3130 3130 3131 3132 3133 3133 3134 3136 3138 3140 3141 3141 3141 3142 3142 3143 3144 3145 3146 3146 3147 3149 3151 3151 3151 3154 3156 3156 3156 3156 3156 3157 3158 3158 3158 3157 3156 3156 3156 3155 3154 3154 3153 3153 3153 3152 3151 3151 3150 3150 3150 3149 3148 3147 3146 3145 3143 3142
3099 3101 3103 3104 3106 3108 3109 3110 3112 3114 3115 3116 3117 3118 3119 3119 3120 3122 3123 3123 3123 3123 3123 3123 3124 3124 3124 3125 3125 3126 3127 3127 3128 3129 3130 3132 3133 3134 3135 3136 3137 3138 3138 3139 3140 3140 3140 3141 3143 3145 3145 3146 3148 3150 3150 3151 3151 3151 3152 3153 3153 3153 3153 3152 3151 3151 3150 3150 3149 3149 3149 3149 3148 3148 3147 3147 3147 3146 3145 3144 3144 3142 3141 3140 3139
3096 3097 3098 3100 3102 3103 3104 3106 3107 3109 3110 3111 3112 3113 3114 3115 3115 3116 3117 3117 3117 3118 3118 3118 3119 3119 3119 3120 3120 3121 3122 3122 3122 3123 3124 3126 3127 3128 3129 3130 3131 3132 3132 3133 3134 3134 3135 3136 3137 3139 3140 3141 3142 3144 3145 3145 3146 3147 3147 3148 3148 3148 3148 3147 3147 3147 3146 3145 3145 3145 3145 3145 3144 3144 3144 3143 3143 3143 3142 3141 3140 3139 3138 3136 3136
3092 3093 3094 3096 3097 3099 3100 3101 3103 3104 3105 3107 3107 3109 3110 3110 3111 3112 3112 3113 3112 3112 3113 3113 3113 3114 3114 3115 3115 3116 3117 3117 3117 3117 3118 3120 3121 3122 3124 3124 3125 3126 3126 3127 3128 3128 3128 3129 3132 3134 3135 3135 3137 3138 3139 3139 3141 3142 3142 3143 3143 3143 3143 3142 3142 3142 3141 3140 3140 3140 3141 3141 3141 3140 3141 3140 3140 3139 3138 3137 3137 3136 3134 3133 3133
3089 3090 3091 3092 3093 3095 3096 3097 3098 3100 3101 3102 3103 3104 3105 3105 3106 3107 3107 3107 3107 3108 3108 3108 3108 3109 3109 3110 3111 3111 3111 3111 3112 3112 3113 3114 3115 3116 3118 3118 3118 3119 3120 3120 3121 3121 3121 3123 3126 3127 3129 3129 3130 3131 3132 3133 3135 3136 3137 3137 3138 3137 3137 3138 3138 3137 3136 3136 3136 3136 3137 3137 3137 3136 3137 3137 3136 3136 3135 3134 3133 3132 3130 3130 3130
3086 3087 3088 3089 3090 3091 3092 3093 3094 3095 3096 3097 3098 3099 3100 3100 3101 3102 3102 3103 3103 3104 3104 3104 3103 3104 3104 3105 3106 3106 3105 3105 3106 3107 3108 3108 3108 3109 3110 3111 3111 3112 3112 3113 3113 3114 3115 3116 3118 3120 3121 3121 3122 3123 3125 3127 3129 3130 3131 3131 3131 3131 3132 3132 3133 3132 3132 3131 3132 3132 3133 3134 3133 3133 3133 3133 3133 3132 3132 3131 3130 3129 3127 3126 3127
3083 3084 3085 3085 3086 3088 3089 3090 3091 3091 3092 3093 3094 3095 3095 3096 3097 3098 3098 3099 3100 3100 3099 3099 3099 3099 3100 3100 3100 3100 3100 3100 3101 3102 3102 3102 3102 3103 3103 3104 3104 3104 3104 3105 3106 3106 3106 3108 3111 3114 3114 3114 3114 3116 3119 3121 3122 3123 3124 3125 3125 3126 3127 3127 3127 3127 3127 3127 3127 3128 3129 3130 3130 3130 3130 3130 3129 3129 3128 3127 3127 3125 3123 3123 3124
3079 3080 3081 3082 3083 3084 3085 3086 3087 3088 3089 3090 3090 3091 3092 3092 3093 3094 3095 3095 3095 3095 3095 3095 3095 3094 3094 3094 3093 3093 3093 3094 3095 3096 3096 3095 3095 3096 3096 3096 3096 3096 3097 3098 3099 3098 3098 3101 3104 3106 3106 3105 3107 3109 3111 3113 3115 3117 3118 3118 3119 3120 3122 3122 3122 3122 3122 3122 3123 3124 3125 3126 3126 3127 3127 3126 3126 3125 3124 3124 3123 3122 3120 3120 3121
3076 3077 3078 3079 3080 3081 3082 3083 3083 3084 3085 3086 3086 3087 3088 3088 3089 3090 3090 3090 3090 3090 3089 3089 3089 3088 3088 3087 3086 3086 3086 3088 3090 3090 3088 3086 3087 3088 3088 3088 3087 3087 3089 3090 3090 3091 3092 3093 3096 3097 3097 3097 3099 3101 3104 3107 3109 3110 3111 3112 3113 3114 3116 3116 3116 3117 3117 3117 3118 3120 3121 3122 3122 3123 3123 3123 3122 3121 3121 3120 3120 3118 3116 3117 3118
3072 3073 3075 3076 3077 3078 3078 3079 3080 3080 3081 3081 3082 3083 3083 3084 3085 3085 3084 3084 3084 3084 3083 3082 3082 3081 3080 3080 3079 3078 3079 3081 3084 3083 3080 3078 3078 3079 3080 3079 3078 3078 3079 3079 3079 3080 3081 3084 3086 3088 3088 3090 3093 3095 3098 3101 3102 3103 3105 3106 3107 3109 3110 3111 3111 3111 3111 3112 3113 3116 3117 3117 3118 3119 3119 3119 3118 3117 3117 3117 3116 3115 3113 3113 3115
3069 3070 3071 3072 3073 3074 3075 3075 3076 3077 3077 3077 3077 3078 3078 3079 3079 3078 3078 3077 3077 3077 3077 3076 3075 3074 3073 3072 3072 3071 3072 3074 3075 3075 3073 3071 3070 3070 3070 3069 3070 3070 3070 3068 3066 3067 3069 3072 3075 3077 3079 3083 3087 3089 3092 3095 3096 3098 3099 3100 3102 3104 3105 3105 3106 3106 3106 3107 3108 3110 3112 3113 3114 3115 3115 3114 3114 3113 3113 3113 3113 3111 3110 3110 3112
3065 3066 3067 3068 3069 3070 3071 3071 3072 3072 3072 3072 3072 3073 3073 3072 3072 3072 3072 3072 3071 3071 3070 3069 3068 3067 3066 3065 3064 3063 3065 3066 3066 3066 3064 3062 3061 3060 3060 3060 3061 3062 3061 3058 3055 3054 3055 3058 3062 3064 3068 3073 3078 3082 3085 3089 3092 3093 3094 3095 3096 3098 3100 3100 3100 3100 3101 3102 3104 3106 3108 3109 3111 3111 3111 3110 3110 3109 3108 3109 3109 3107 3106 3107 3109
3061 3062 3063 3064 3065 3065 3066 3067 3067 3067 3067 3067 3067 3067 3067 3067 3066 3066 3066 3066 3065 3064 3063 3062 3061 3060 3059 3057 3055 3055 3056 3057 3057 3056 3054 3052 3051 3050 3049 3050 3051 3053 3051 3047 3042 3040 3042 3045 3050 3053 3055 3060 3066 3072 3076 3081 3085 3088 3089 3090 3091 3093 3094 3095 3095 3095 3096 3098 3100 3103 3105 3106 3107 3107 3107 3106 3105 3105 3104 3105 3105 3103 3103 3104 3106
3057 3058 3059 3060 3060 3061 3061 3062 3062 3062 3062 3062 3062 3062 3062 3061 3061 3060 3060 3059 3059 3058 3057 3056 3055 3053 3052 3050 3048 3047 3047 3047 3046 3045 3043 3041 3039 3039 3039 3038 3037 3038 3038 3035 3033 3033 3034 3035 3038 3041 3044 3048 3054 3060 3066 3071 3077 3081 3083 3084 3085 3087 3089 3090 3090 3089 3090 3092 3095 3099 3101 3102 3103 3104 3103 3102 3101 3101 3100 3101 3101 3100 3099 3101 3102
3053 3054 3055 3055 3056 3056 3056 3057 3057 3057 3057 3057 3057 3057 3057 3056 3056 3055 3054 3054 3053 3052 3051 3050 3049 3047 3045 3043 3041 3040 3039 3038 3036 3034 3032 3029 3028 3028 3026 3023 3022 3022 3022 3022 3022 3025 3029 3031 3030 3032 3035 3039 3044 3050 3056 3061 3067 3072 3075 3077 3078 3081 3084 3085 3085 3085 3085 3086 3090 3094 3097 3098 3099 3099 3099 3098 3097 3097 3097 3097 3097 3096 3096 3098 3099
3049 3050 3051 3051 3052 3052 3052 3052 3052 3052 3052 3052 3052 3052 3052 3051 3050 3050 3049 3048 3047 3046 3045 3044 3043 3041 3039 3036 3035 3033 3031 3029 3026 3025 3022 3020 3018 3014 3010 3007 3007 3008 3008 3008 3008 3012 3019 3024 3025 3025 3027 3032 3037 3042 3047 3052 3058 3064 3066 3069 3072 3077 3080 3082 3082 3081 3081 3081 3084 3089 3092 3093 3094 3095 3095 3094 3093 3093 3093 3093 3093 3093 3093 3095 3096
3045 3046 3046 3047 3047 3047 3047 3047 3047 3047 3047 3047 3047 3047 3046 3046 3045 3044 3043 3043 3042 3041 3039 3038 3037 3035 3033 3030 3028 3025 3022 3019 3016 3014 3012 3009 3005 2999 2994 2991 2989 2989 2992 2995 2996 2998 3004 3011 3015 3017 3020 3024 3031 3036 3039 3044 3051 3055 3058 3062 3067 3073 3076 3079 3079 3080 3078 3077 3080 3085 3088 3088 3089 3090 3090 3090 3089 3089 3089 3090 3090 3090 3090 3091 3093
3041 3041 3042 3042 3042 3043 3043 3043 3043 3043 3043 3042 3042 3042 3041 3041 3040 3039 3038 3038 3037 3035 3034 3032 3030 3028 3026 3024 3021 3018 3014 3010 3006 3004 3000 2995 2988 2981 2976 2973 2971 2972 2976 2981 2982 2987 2995 3001 3004 3008 3014 3020 3026 3030 3033 3038 3044 3048 3051 3057 3063 3067 3071 3074 3077 3077 3076 3074 3077 3081 3083 3083 3084 3085 3085 3085 3085 3085 3086 3086 3086 3086 3087 3088 3089
3037 3037 3038 3038 3038 3039 3039 3039 3039 3039 3038 3038 3038 3038 3037 3036 3036 3035 3034 3033 3032 3030 3029 3027 3025 3023 3020 3017 3014 3011 3007 3003 2999 2994 2988 2982 2974 2967 2962 2959 2957 2959 2966 2970 2972 2978 2987 2993 2996 3003 3011 3018 3021 3025 3029 3034 3039 3042 3047 3053 3058 3061 3065 3069 3073 3075 3073 3073 3075 3077 3078 3079 3080 3081 3081 3081 3081 3081 3082 3083 3083 3083 3083 3085 3086
3034 3035 3035 3036 3036 3036 3036 3036 3036 3036 3035 3035 3035 3034 3033 3032 3031 3030 3030 3028 3027 3026 3024 3022 3020 3018 3014 3011 3007 3003 3000 2997 2993 2987 2980 2972 2963 2956 2951 2949 2949 2953 2957 2960 2965 2974 2981 2987 2993 3000 3006 3011 3016 3022 3029 3033 3035 3039 3045 3051 3055 3058 3062 3065 3069 3071 3071 3071 3072 3073 3074 3075 3076 3076 3076 3076 3076 3077 3078 3079 3079 3079 3080 3081 3082
3032 3033 3034 3034 3034 3034 3034 3034 3034 3034 3033 3033 3032 3032 3030 3029 3028 3027 3026 3025 3023 3022 3020 3018 3016 3013 3010 3007 3003 2999 2995 2993 2991 2987 2979 2968 2959 2953 2947 2943 2947 2953 2952 2950 2957 2970 2978 2983 2990 2996 3000 3007 3014 3021 3027 3030 3033 3038 3044 3048 3053 3056 3059 3062 3066 3068 3068 3068 3069 3070 3070 3071 3071 3071 3072 3072 3072 3073 3074 3074 3075 3075 3076 3077 3078
3030 3031 3032 3032 3032 3032 3032 3032 3032 3032 3031 3031 3030 3029 3028 3026 3025 3024 3023 3022 3020 3018 3017 3015 3013 3011 3008 3006 3003 2999 2995 2993 2991 2990 2985 2974 2967 2965 2961 2955 2955 2961 2959 2953 2956 2968 2976 2981 2987 2993 2999 3006 3014 3020 3023 3027 3031 3036 3041 3045 3049 3053 3057 3060 3063 3064 3064 3065 3066 3066 3067 3067 3067 3067 3067 3068 3068 3069 3070 3070 3071 3072 3073 3074 3075
3028 3029 3029 3029 3029 3029 3029 3029 3029 3029 3029 3029 3028 3027 3025 3024 3023 3021 3020 3019 3018 3016 3014 3012 3011 3009 3008 3006 3003 3000 2996 2993 2991 2991 2988 2981 2975 2975 2976 2972 2970 2973 2974 2971 2970 2973 2978 2984 2990 2995 3000 3006 3013 3018 3022 3026 3030 3035 3039 3043 3047 3051 3055 3058 3059 3060 3060 3061 3062 3062 3063 3063 3063 3063 3063 3064 3064 3065 3065 3066 3067 3068 3069 3070 3071
3026 3027 3027 3027 3027 3027 3027 3027 3027 3027 3026 3026 3025 3024 3023 3022 3020 3019 3018 3017 3015 3014 3012 3010 3009 3007 3006 3006 3004 3001 2997 2994 2991 2989 2987 2984 2979 2977 2978 2977 2977 2981 2986 2986 2983 2982 2985 2990 2995 2998 3002 3007 3013 3018 3023 3026 3030 3034 3038 3042 3046 3050 3052 3054 3055 3056 3057 3057 3058 3059 3059 3059 3059 3060 3059 3060 3061 3061 3061 3062 3064 3064 3065 3067 3067
3024 3025 3025 3025 3025 3025 3025 3025 3024 3024 3024 3023 3023 3022 3021 3020 3018 3017 3015 3014 3013 3012 3010 3009 3007 3006 3005 3004 3003 3001 2998 2995 2992 2989 2987 2985 2983 2981 2980 2981 2982 2986 2990 2991 2989 2988 2991 2994 2998 3001 3005 3009 3014 3019 3023 3026 3030 3034 3038 3042 3045 3047 3049 3050 3051 3052 3053 3053 3054 3055 3055 3055 3056 3056 3056 3056 3057 3057 3057 3058 3060 3061 3062 3063 3064
3022 3022 3023 3023 3023 3022 3022 3022 3022 3021 3021 3020 3020 3020 3019 3017 3016 3014 3013 3012 3011 3010 3009 3008 3006 3004 3003 3002 3002 3001 2999 2996 2994 2991 2989 2987 2986 2986 2985 2986 2986 2988 2990 2991 2991 2992 2994 2997 3001 3004 3008 3012 3016 3020 3023 3026 3030 3034 3037 3040 3042 3044 3045 3046 3047 3048 3049 3049 3050 3051 3051 3052 3052 3052 3052 3052 3053 3053 3054 3055 3056 3057 3058 3059 3060
3020 3020 3020 3020 3020 3020 3020 3020 3019 3019 3018 3017 3017 3016 3015 3014 3013 3012 3010 3009 3008 3007 3007 3006 3005 3004 3002 3001 3001 3000 2999 2997 2995 2994 2992 2991 2991 2991 2990 2990 2991 2991 2992 2993 2994 2996 2998 3000 3003 3007 3010 3014 3017 3021 3024 3027 3030 3033 3035 3038 3039 3040 3041 3042 3043 3044 3045 3046 3047 3047 3047 3048 3048 3048 3048 3048 3049 3049 3050 3051 3052 3053 3054 3056 3057
3017 3017 3017 3017 3017 3017 3017 3017 3016 3016 3015 3014 3013 3012 3011 3010 3009 3008 3007 3006 3005 3004 3004 3004 3003 3002 3001 3001 3001 3000 2999 2998 2997 2996 2995 2995 2995 2995 2995 2995 2996 2996 2997 2997 2998 3000 3001 3003 3006 3009 3012 3015 3018 3022 3025 3027 3030 3032 3034 3035 3036 3037 3038 3039 3040 3041 3042 3042 3043 3043 3044 3044 3044 3044 3044 3045 3045 3045 3046 3047 3048 3049 3050 3052 3053
3015 3015 3015 3015 3014 3014 3014 3014 3014 3013 3012 3011 3010 3009 3008 3007 3006 3005 3004 3003 3002 3002 3001 3001 3000 3000 3000 3000 3000 3000 2999 2999 2998 2997 2997 2997 2997 2998 2999 3000 3000 3001 3001 3002 3003 3004 3005 3007 3009 3011 3014 3016 3019 3022 3024 3026 3028 3030 3031 3032 3033 3034 3035 3035 3036 3037 3038 3038 3039 3039 3040 3040 3040 3040 3041 3041 3042 3042 3042 3043 3044 3045 3047 3048 3049
3013 3013 3013 3012 3012 3012 3012 3012 3012 3010 3009 3008 3007 3006 3005 3004 3003 3003 3002 3001 3000 2999 2999 2998 2998 2998 2998 2998 2998 2998 2999 2999 2999 2998 2998 2999 2999 3000 3001 3002 3003 3004 3005 3005 3006 3007 3008 3009 3011 3013 3015 3017 3019 3021 3023 3025 3026 3027 3028 3029 3030 3031 3031 3031 3032 3033 3034 3034 3034 3035 3035 3036 3036 3037 3037 3038 3038 3038 3039 3040 3041 3042 3043 3044 3045
3011 3011 3011 3011 3011 3011 3011 3010 3009 3008 3007 3006 3005 3003 3002 3001 3001 3001 3000 3000 2998 2997 2996 2996 2996 2996 2996 2997 2997 2996 2996 2997 2997 2998 2999 2999 3000 3001 3001 3002 3003 3004 3005 3006 3006 3007 3008 3009 3011 3013 3015 3016 3018 3020 3021 3022 3023 3024 3025 3026 3027 3027 3027 3028 3028 3029 3029 3030 3030 3031 3031 3032 3032 3033 3034 3034 3034 3035 3035 3036 3037 3038 3039 3040 3041